Погода в Промысловке

Россия / Астраханская область     45°43′21″N   47°09′59″E
темп.,
°C
ветер,
м/с
пор.,
м/с
влажн.,
%
обл.,
%
осадки,
мм/ч
давл.,
гПа
погр.,
м
12 мая, ср
ср1201:00+12всв45610 0.0 101798
04:00+12всв45680 0.0 101777
07:00+14всв35670 0.0 1017205
10:00+19в34490 0.0 10171112
13:00+23вюв554025 0.0 10171824
16:00+22юв77489 0.0 10161432
19:00+19юв55530 0.0 1016632
22:00+16ююв34630 0.0 1016123
13 мая, чт
чт1301:00+15юв22670 0.0 101534
04:00+14юв22685 0.0 101519
07:00+16ююв12595 0.0 101592
10:00+21юв34465 0.0 1016870
13:00+25юв44420 0.0 10161036
16:00+25юв66400 0.0 1015859
19:00+21юв68560 0.0 1016451
22:00+18вюв48690 0.0 1017211
14 мая, пт
пт1401:00+18вюв49711 0.0 1016169
04:00+18вюв48705 0.0 1016125
07:00+21вюв612580 0.0 1016314
10:00+26юв912315 0.0 1017532
13:00+28юв1014261 0.0 1017614
16:00+27юв1115265 0.0 1017634
19:00+24юв816340 0.0 1016556
22:00+20вюв6144622 0.0 1017251
15 мая, сб
сб1501:00+19в511497 0.0 1016172
04:00+19в614524 0.0 1015190
07:00+22юв918460 0.0 1015449
10:00+27юв1115320 0.0 1016766
13:00+29юв1013290 0.0 1016839
16:00+28юв912290 0.0 1015737
19:00+25вюв711390 0.0 1015441
22:00+21вюв410530 0.0 1015178
16 мая, вс
вс1601:00+21в46430 0.0 101483
04:00+19в47560 0.0 101399
07:00+22вюв412610 0.0 1013280
10:00+29юв913270 0.0 1013697
13:00+28юв1013270 0.0 1013759
16:00+29вюв1013240 0.0 1012848
19:00+26вюв812320 0.0 1011627
22:00+22в614380 0.0 1010278